Dayton, OH

5:15 PM EST on February 19, 2017 (GMT -0500)
Wright-Patterson Air Force Base

Weather History for KFFO - December, 2013

Change the Weather History Date:

Sunday, December 8, 2013

  Actual Average Record
Temperature  
Mean Temperature 22 °F -  
Max Temperature 31 °F 42 °F 55 °F (1999)
Min Temperature 15 °F 28 °F 7 °F (2006)
Degree Days  
Heating Degree Days 42    
Moisture  
Dew Point 22 °F    
Average Humidity 87    
Maximum Humidity 100    
Minimum Humidity 72    
Precipitation  
Precipitation 0.00 in - - ()
Snow  
Snow 0.00 in - - ()
Snow Depth 4.00 in    
Sea Level Pressure  
Sea Level Pressure 30.23 in    
Wind  
Wind Speed 8 mph (East)    
Max Wind Speed 13 mph    
Max Gust Speed -    
Visibility 4 miles    
Events Snow    
Averages and records for this station are not official NWS values.
T = Trace of Precipitation, MM = Missing Value Source: NWS Daily Summary

Daily Weather History Graph

Daily Weather History Graph

Search for Another Location

Airport or City:

Trip Planner

Search our weather history database for the weather conditions in past years. The results will help you decide how hot, cold, wet, or windy it might be!

Date:

Astronomy

Dec. 08, 2013 Rise Set
Actual Time 7:45 AM EST 5:11 PM EST
Civil Twilight 7:14 AM EST 5:41 PM EST
Nautical Twilight 6:41 AM EST 6:15 PM EST
Astronomical Twilight 6:08 AM EST 6:48 PM EST
Moon 12:05 PM EST (12/8) 11:59 PM EST (12/8)
Length of Visible Light 10h 26m
Length of Day
9h 26m
Waxing Crescent, 40% of the Moon is Illuminated
Dec 8
Waxing Crescent
Dec 9
First Quarter
Dec 17
Full
Dec 25
Last Quarter
Jan 1
New

Hourly Weather History & Observations

Time (EST) Temp. Windchill Dew Point Humidity Pressure Visibility Wind Dir Wind Speed Gust Speed Precip Events Conditions
12:58 AM 15.8 °F 7.2 °F 11.1 °F 82% 30.56 in 10.0 mi NNE 5.8 mph - N/A   Clear
1:58 AM 16.5 °F 11.0 °F 12.0 °F 82% 30.54 in 10.0 mi ENE 3.5 mph - N/A   Overcast
2:58 AM 18.5 °F 11.7 °F 12.4 °F 77% 30.53 in 10.0 mi ENE 4.6 mph - N/A   Clear
3:58 AM 20.1 °F 10.3 °F 12.9 °F 74% 30.50 in 10.0 mi ENE 8.1 mph - N/A   Mostly Cloudy
4:58 AM 20.8 °F 9.7 °F 13.1 °F 72% 30.47 in 10.0 mi ENE 10.4 mph - N/A   Scattered Clouds
5:58 AM 21.0 °F 11.4 °F 13.5 °F 73% 30.47 in 10.0 mi ENE 8.1 mph - N/A   Partly Cloudy
6:58 AM 21.4 °F 10.4 °F 14.2 °F 74% 30.43 in 10.0 mi NE 10.4 mph - N/A   Clear
7:58 AM 21.7 °F 11.5 °F 14.9 °F 75% 30.42 in 10.0 mi NE 9.2 mph - N/A   Clear
8:58 AM 22.1 °F 12.0 °F 14.5 °F 73% 30.41 in 4.0 mi ENE 9.2 mph - N/A Snow Light Snow
9:48 AM 23.0 °F 12.4 °F 17.6 °F 80% 30.39 in 4.0 mi ENE 10.4 mph - N/A Snow Light Snow
9:53 AM 23.0 °F 12.4 °F 17.6 °F 80% 30.40 in 10.0 mi ENE 10.4 mph - N/A Snow Light Snow
9:58 AM 22.5 °F 12.4 °F 17.2 °F 80% 30.40 in 10.0 mi ENE 9.2 mph - 0.00 in Snow Light Snow
10:26 AM 23.0 °F 12.4 °F 17.6 °F 80% 30.40 in 7.0 mi ENE 10.4 mph - N/A Snow Light Snow
10:51 AM 23.0 °F 11.1 °F 17.6 °F 80% 30.38 in 2.0 mi ENE 12.7 mph - N/A Snow Light Snow
10:58 AM 23.7 °F 12.6 °F 18.7 °F 81% 30.37 in 2.0 mi ENE 11.5 mph - 0.00 in Snow Light Snow
11:33 AM 24.8 °F 13.4 °F 19.4 °F 80% 30.34 in 3.0 mi ENE 12.7 mph - N/A Snow Light Snow
11:46 AM 24.8 °F 13.4 °F 19.4 °F 80% 30.34 in 2.0 mi East 12.7 mph - N/A Snow Light Snow
11:58 AM 25.0 °F 14.8 °F 20.1 °F 82% 30.33 in 2.0 mi ENE 10.4 mph - 0.00 in Snow Light Snow
12:58 PM 25.7 °F 15.1 °F 21.6 °F 84% 30.29 in 2.0 mi ENE 11.5 mph - 0.00 in Snow Light Snow
1:14 PM 26.6 °F 17.5 °F 21.2 °F 80% 30.28 in 3.0 mi ENE 9.2 mph - N/A Snow Light Snow
1:58 PM 26.4 °F 16.0 °F 21.9 °F 83% 30.25 in 3.0 mi ENE 11.5 mph - 0.00 in Snow Light Snow
2:24 PM 26.6 °F 15.7 °F 23.0 °F 86% 30.21 in 5.0 mi East 12.7 mph - N/A Snow Light Snow
2:58 PM 26.8 °F 15.9 °F 23.2 °F 86% 30.19 in 7.0 mi ENE 12.7 mph - 0.00 in   Overcast
3:53 PM 26.6 °F 18.2 °F 24.8 °F 93% 30.18 in 6.0 mi ENE 8.1 mph - N/A   Overcast
3:58 PM 27.3 °F 20.9 °F 23.9 °F 87% 30.18 in 6.0 mi East 5.8 mph - N/A   Overcast
4:05 PM 26.6 °F 19.1 °F 24.8 °F 93% 30.17 in 3.0 mi East 6.9 mph - N/A Snow Light Snow
4:12 PM 26.6 °F 18.2 °F 24.8 °F 93% 30.17 in 3.0 mi East 8.1 mph - N/A Snow Light Snow
4:34 PM 26.6 °F 18.2 °F 24.8 °F 93% 30.16 in 2.5 mi East 8.1 mph - N/A Snow Light Snow
4:49 PM 26.6 °F 16.2 °F 24.8 °F 93% 30.15 in 2.0 mi East 11.5 mph - N/A Snow Light Snow
4:58 PM 27.3 °F 19.1 °F 25.0 °F 91% 30.14 in 1.5 mi ESE 8.1 mph - 0.00 in   Overcast
5:14 PM 26.6 °F 17.5 °F 24.8 °F 93% 30.13 in 1.0 mi East 9.2 mph - N/A   Overcast
5:51 PM 26.6 °F 18.2 °F 26.6 °F 100% 30.13 in 2.0 mi East 8.1 mph - N/A   Overcast
5:58 PM 27.5 °F 20.2 °F 25.7 °F 93% 30.14 in 2.0 mi East 6.9 mph - N/A   Overcast
6:21 PM 26.6 °F 19.1 °F 24.8 °F 93% 30.12 in 1.5 mi East 6.9 mph - N/A   Overcast
6:50 PM 26.6 °F 20.0 °F 26.6 °F 100% 30.11 in 1.0 mi East 5.8 mph - N/A   Overcast
6:58 PM 27.5 °F 21.1 °F 25.7 °F 93% 30.12 in 1.0 mi ESE 5.8 mph - N/A   Overcast
7:31 PM 28.4 °F 22.2 °F 26.6 °F 93% 30.10 in 1.0 mi ESE 5.8 mph - N/A   Overcast
7:44 PM 28.4 °F 22.2 °F 26.6 °F 93% 30.09 in 0.8 mi ESE 5.8 mph - N/A   Light Freezing Drizzle
7:58 PM 28.0 °F 21.7 °F 26.4 °F 94% 30.09 in 0.8 mi ESE 5.8 mph - 0.00 in   Light Freezing Drizzle
8:10 PM 28.4 °F 22.2 °F 26.6 °F 93% 30.08 in 1.5 mi ESE 5.8 mph - N/A   Light Freezing Drizzle
8:40 PM 28.4 °F 24.6 °F 26.6 °F 93% 30.07 in 2.0 mi Variable 3.5 mph - N/A   Light Freezing Drizzle
8:55 PM 28.9 °F 25.2 °F 27.7 °F 95% 30.07 in 2.0 mi SSE 3.5 mph - 0.00 in   Light Freezing Drizzle
9:28 PM 30.2 °F 26.7 °F 28.4 °F 93% 30.02 in 2.5 mi SSE 3.5 mph - N/A   Light Freezing Drizzle
9:42 PM 30.2 °F 25.4 °F 28.4 °F 93% 30.02 in 2.5 mi SSE 4.6 mph - N/A   Light Freezing Drizzle
9:58 PM 30.2 °F 25.4 °F 28.4 °F 93% 30.05 in 4.0 mi South 4.6 mph - 0.00 in   Overcast
10:28 PM 30.2 °F - 28.4 °F 93% 30.00 in 2.5 mi SSE 2.3 mph - N/A   Overcast
10:38 PM 30.2 °F - 28.4 °F 93% 30.00 in 2.0 mi SSE 2.3 mph - N/A   Light Freezing Drizzle
10:58 PM 30.4 °F 25.6 °F 29.3 °F 96% 30.04 in 2.0 mi South 4.6 mph - N/A   Light Freezing Drizzle
11:58 PM 31.3 °F 25.6 °F 30.4 °F 96% 30.04 in 2.5 mi South 5.8 mph - N/A   Light Freezing Rain